• In Czech Republic
  • List of Countries
  • For 7 days
  • Water Temperature
  • Satellite Maps
  • Weather Map
  • Weather Widgets
  • user-avatar
    Login

    Hourly Weather Barisal

    Today, 17 October, Tuesday

    Time Temperature Precipitation Wind Pressure Humidity
    00:00 +28°C° 0 mm 1 mps 754 mmHg 73%
    01:00 +28°C° 0 mm 1 mps 753 mmHg 74%
    02:00 +28°C° 0 mm 2 mps 753 mmHg 76%
    03:00 +28°C° 0 mm 2 mps 753 mmHg 77%
    04:00 +27°C° 0 mm 2 mps 753 mmHg 78%
    05:00 +27°C° 0 mm 2 mps 753 mmHg 78%
    06:00 +27°C° 0 mm 2 mps 754 mmHg 79%
    07:00 +29°C° 0 mm 3 mps 754 mmHg 73%
    08:00 +30°C° 0 mm 3 mps 754 mmHg 67%
    09:00 +33°C° 0 mm 4 mps 755 mmHg 61%
    10:00 +34°C° 0 mm 4 mps 754 mmHg 57%
    11:00 +35°C° 0 mm 3 mps 754 mmHg 53%
    12:00 +36°C° 0 mm 3 mps 753 mmHg 49%
    13:00 +36°C° 0 mm 3 mps 753 mmHg 48%
    14:00 +36°C° 0 mm 2 mps 752 mmHg 48%
    15:00 +35°C° 0 mm 1 mps 751 mmHg 47%
    16:00 +34°C° 0 mm 1 mps 752 mmHg 51%
    17:00 +33°C° 0 mm 1 mps 752 mmHg 54%
    18:00 +31°C° 0 mm 1 mps 752 mmHg 58%
    19:00 +31°C° 0 mm 1 mps 752 mmHg 60%
    20:00 +30°C° 0 mm 1 mps 753 mmHg 62%
    21:00 +30°C° 0 mm 1 mps 753 mmHg 65%
    22:00 +29°C° 0 mm 1 mps 753 mmHg 67%
    23:00 +29°C° 0 mm 1 mps 753 mmHg 69%

    Tomorrow, 18 October, Wednesday

    Time Temperature Precipitation Wind Pressure Humidity
    00:00 +29°C° 0 mm 1 mps 753 mmHg 71%
    01:00 +28°C° 0.1 mm 1 mps 753 mmHg 72%
    02:00 +28°C° 0.1 mm 1 mps 753 mmHg 73%
    03:00 +28°C° 0.1 mm 1 mps 752 mmHg 74%
    04:00 +28°C° 0 mm 1 mps 753 mmHg 73%
    05:00 +28°C° 0 mm 1 mps 753 mmHg 73%
    06:00 +28°C° 0 mm 2 mps 753 mmHg 73%
    07:00 +29°C° 0.1 mm 2 mps 753 mmHg 72%
    08:00 +30°C° 0.1 mm 3 mps 754 mmHg 70%
    09:00 +33°C° 0.1 mm 3 mps 755 mmHg 69%
    10:00 +33°C° 0.7 mm 4 mps 754 mmHg 69%
    11:00 +34°C° 0.7 mm 4 mps 754 mmHg 68%
    12:00 +34°C° 0.7 mm 4 mps 754 mmHg 68%
    13:00 +33°C° 1.5 mm 4 mps 753 mmHg 73%
    14:00 +32°C° 1.5 mm 4 mps 753 mmHg 79%
    15:00 +30°C° 1.5 mm 3 mps 752 mmHg 85%
    16:00 +29°C° 0.3 mm 3 mps 753 mmHg 87%
    17:00 +29°C° 0.3 mm 2 mps 753 mmHg 88%
    18:00 +28°C° 0.3 mm 2 mps 753 mmHg 90%
    19:00 +28°C° 0.2 mm 2 mps 754 mmHg 90%
    20:00 +28°C° 0.2 mm 2 mps 754 mmHg 89%
    21:00 +28°C° 0.2 mm 3 mps 755 mmHg 89%
    22:00 +28°C° 0.1 mm 3 mps 755 mmHg 89%
    23:00 +28°C° 0.1 mm 3 mps 754 mmHg 89%

    Day after tomorrow, 19 October, Thursday

    Time Temperature Precipitation Wind Pressure Humidity
    00:00 +28°C° 0.1 mm 3 mps 754 mmHg 89%
    01:00 +28°C° 0.5 mm 3 mps 754 mmHg 89%
    02:00 +28°C° 0.5 mm 3 mps 753 mmHg 90%
    03:00 +28°C° 0.5 mm 4 mps 753 mmHg 90%
    04:00 +28°C° 1.7 mm 4 mps 753 mmHg 91%
    05:00 +28°C° 1.7 mm 4 mps 754 mmHg 91%
    06:00 +28°C° 1.7 mm 4 mps 754 mmHg 92%
    07:00 +28°C° 3.3 mm 5 mps 754 mmHg 92%
    08:00 +28°C° 3.3 mm 5 mps 755 mmHg 91%
    09:00 +28°C° 3.3 mm 5 mps 756 mmHg 91%
    10:00 +28°C° 3.1 mm 5 mps 755 mmHg 90%
    11:00 +29°C° 3.1 mm 5 mps 755 mmHg 89%
    12:00 +29°C° 3.1 mm 5 mps 755 mmHg 88%
    13:00 +29°C° 3.9 mm 4 mps 754 mmHg 90%
    14:00 +28°C° 3.9 mm 4 mps 754 mmHg 92%
    15:00 +28°C° 3.9 mm 4 mps 753 mmHg 93%
    16:00 +28°C° 4 mm 4 mps 753 mmHg 93%
    17:00 +28°C° 4 mm 4 mps 754 mmHg 93%
    18:00 +27°C° 4 mm 4 mps 754 mmHg 93%
    19:00 +28°C° 3.2 mm 4 mps 754 mmHg 93%
    20:00 +28°C° 3.2 mm 4 mps 755 mmHg 93%
    21:00 +28°C° 3.2 mm 4 mps 756 mmHg 93%
    22:00 +28°C° 3.4 mm 4 mps 755 mmHg 93%
    23:00 +28°C° 3.4 mm 4 mps 755 mmHg 93%

    20 October, Friday

    Time Temperature Precipitation Wind Pressure Humidity
    00:00 +28°C° 3.4 mm 4 mps 755 mmHg 93%
    01:00 +28°C° 4 mm 4 mps 755 mmHg 93%
    02:00 +28°C° 4 mm 4 mps 754 mmHg 94%
    03:00 +27°C° 4 mm 4 mps 754 mmHg 94%
    04:00 +28°C° 5 mm 4 mps 754 mmHg 93%
    05:00 +28°C° 5 mm 4 mps 754 mmHg 93%
    06:00 +28°C° 5 mm 4 mps 755 mmHg 92%
    07:00 +28°C° 2.9 mm 4 mps 755 mmHg 91%
    08:00 +28°C° 2.9 mm 4 mps 756 mmHg 90%
    09:00 +29°C° 2.9 mm 4 mps 757 mmHg 90%
    10:00 +29°C° 1.9 mm 4 mps 756 mmHg 88%
    11:00 +29°C° 1.9 mm 5 mps 756 mmHg 87%
    12:00 +30°C° 1.9 mm 5 mps 756 mmHg 86%
    13:00 +30°C° 1.1 mm 5 mps 755 mmHg 86%
    14:00 +30°C° 1.1 mm 4 mps 754 mmHg 86%
    15:00 +30°C° 1.1 mm 4 mps 754 mmHg 86%
    16:00 +29°C° 1.2 mm 4 mps 754 mmHg 88%
    17:00 +28°C° 1.2 mm 3 mps 754 mmHg 90%
    18:00 +28°C° 1.2 mm 3 mps 755 mmHg 92%
    19:00 +28°C° 0.5 mm 3 mps 755 mmHg 91%
    20:00 +28°C° 0.5 mm 3 mps 755 mmHg 91%
    21:00 +28°C° 0.5 mm 3 mps 756 mmHg 91%
    22:00 +28°C° 0.3 mm 3 mps 756 mmHg 91%
    23:00 +28°C° 0.3 mm 3 mps 755 mmHg 91%

    21 October, Saturday

    Time Temperature Precipitation Wind Pressure Humidity
    00:00 +28°C° 0.3 mm 3 mps 755 mmHg 91%
    01:00 +27°C° 0.2 mm 3 mps 755 mmHg 91%
    02:00 +27°C° 0.2 mm 3 mps 754 mmHg 91%
    03:00 +27°C° 0.2 mm 3 mps 754 mmHg 90%
    04:00 +27°C° 0.1 mm 3 mps 754 mmHg 91%
    05:00 +27°C° 0.1 mm 3 mps 754 mmHg 91%
    06:00 +27°C° 0.1 mm 3 mps 755 mmHg 91%
    07:00 +28°C° 0.2 mm 3 mps 755 mmHg 86%
    08:00 +30°C° 0.2 mm 3 mps 755 mmHg 81%
    09:00 +32°C° 0.2 mm 4 mps 756 mmHg 77%
    10:00 +33°C° 0.3 mm 4 mps 755 mmHg 75%
    11:00 +33°C° 0.3 mm 4 mps 755 mmHg 72%
    12:00 +34°C° 0.3 mm 5 mps 754 mmHg 70%
    13:00 +34°C° 0.3 mm 5 mps 754 mmHg 71%
    14:00 +33°C° 0.3 mm 5 mps 753 mmHg 72%
    15:00 +33°C° 0.3 mm 5 mps 753 mmHg 73%
    16:00 +32°C° 0.2 mm 5 mps 753 mmHg 78%
    17:00 +30°C° 0.2 mm 4 mps 753 mmHg 82%
    18:00 +29°C° 0.2 mm 4 mps 753 mmHg 87%
    19:00 +28°C° 0.1 mm 4 mps 754 mmHg 88%
    20:00 +28°C° 0.1 mm 4 mps 754 mmHg 89%
    21:00 +28°C° 0.1 mm 4 mps 755 mmHg 90%
    22:00 +28°C° 0.3 mm 4 mps 754 mmHg 90%
    23:00 +28°C° 0.3 mm 4 mps 754 mmHg 91%

    22 October, Sunday

    Time Temperature Precipitation Wind Pressure Humidity
    00:00 +28°C° 0.3 mm 4 mps 754 mmHg 91%
    01:00 +27°C° 0.3 mm 4 mps 753 mmHg 92%
    02:00 +27°C° 0.3 mm 3 mps 753 mmHg 92%
    03:00 +27°C° 0.3 mm 3 mps 752 mmHg 92%
    04:00 +27°C° 0.3 mm 3 mps 753 mmHg 92%
    05:00 +27°C° 0.3 mm 3 mps 753 mmHg 92%
    06:00 +27°C° 0.3 mm 3 mps 753 mmHg 93%
    07:00 +28°C° 0.6 mm 4 mps 753 mmHg 88%
    08:00 +30°C° 0.6 mm 4 mps 753 mmHg 83%
    09:00 +32°C° 0.6 mm 5 mps 754 mmHg 78%
    10:00 +33°C° 1.1 mm 5 mps 753 mmHg 77%
    11:00 +33°C° 1.1 mm 6 mps 753 mmHg 77%
    12:00 +33°C° 1.1 mm 6 mps 752 mmHg 76%
    13:00 +33°C° 1.2 mm 6 mps 752 mmHg 78%
    14:00 +32°C° 1.2 mm 6 mps 751 mmHg 79%
    15:00 +32°C° 1.2 mm 6 mps 750 mmHg 81%
    16:00 +30°C° 1.6 mm 5 mps 751 mmHg 84%
    17:00 +29°C° 1.6 mm 5 mps 751 mmHg 87%
    18:00 +28°C° 1.6 mm 4 mps 751 mmHg 90%
    19:00 +28°C° 2 mm 5 mps 752 mmHg 90%
    20:00 +28°C° 2 mm 5 mps 752 mmHg 90%
    21:00 +28°C° 2 mm 5 mps 753 mmHg 90%
    22:00 +28°C° 2.2 mm 4 mps 752 mmHg 91%
    23:00 +28°C° 2.2 mm 4 mps 752 mmHg 92%
    Show more